Time,TemperatureF,DewpointF,PressureIn,WindDirection,WindDirectionDegrees,WindSpeedMPH,WindSpeedGustMPH,Humidity,HourlyPrecipIn,Conditions,Clouds,dailyrainin,SoftwareType,DateUTC
2013-10-26 00:03:00,45.1,25.5,29.89,SW,225,17.0,23.0,46,0.00,,,0.00,meteohub,2013-10-26 05:03:00,
2013-10-26 00:08:00,45.0,25.3,29.89,South,180,21.0,27.0,46,0.00,,,0.00,meteohub,2013-10-26 05:08:00,
2013-10-26 00:13:00,44.8,25.3,29.89,SW,225,15.0,27.0,46,0.00,,,0.00,meteohub,2013-10-26 05:13:00,
2013-10-26 00:18:00,44.8,25.3,29.88,SW,225,28.0,28.0,46,0.00,,,0.00,meteohub,2013-10-26 05:18:00,
2013-10-26 00:23:00,44.8,25.7,29.88,SW,225,12.0,28.0,47,0.00,,,0.00,meteohub,2013-10-26 05:23:00,
2013-10-26 00:28:00,44.4,25.9,29.87,SW,225,20.0,28.0,48,0.00,,,0.00,meteohub,2013-10-26 05:28:00,
2013-10-26 00:33:00,44.4,25.9,29.87,NW,315,21.0,28.0,48,0.00,,,0.00,meteohub,2013-10-26 05:33:00,
2013-10-26 00:38:00,44.4,25.9,29.87,SW,225,15.0,27.0,48,0.00,,,0.00,meteohub,2013-10-26 05:38:00,
2013-10-26 00:44:00,44.2,26.2,29.87,SW,225,17.0,28.0,49,0.00,,,0.00,meteohub,2013-10-26 05:44:00,
2013-10-26 00:49:00,44.1,26.1,29.86,SW,225,26.0,28.0,49,0.00,,,0.00,meteohub,2013-10-26 05:49:00,
2013-10-26 00:54:00,44.1,26.6,29.86,South,180,19.0,28.0,50,0.00,,,0.00,meteohub,2013-10-26 05:54:00,
2013-10-26 00:59:00,43.9,26.4,29.86,SW,225,19.0,26.0,50,0.00,,,0.00,meteohub,2013-10-26 05:59:00,
2013-10-26 01:04:00,43.7,26.8,29.86,South,180,16.0,26.0,51,0.00,,,0.00,meteohub,2013-10-26 06:04:00,
2013-10-26 01:09:00,43.7,26.8,29.86,SW,225,22.0,25.0,51,0.00,,,0.00,meteohub,2013-10-26 06:09:00,
2013-10-26 01:14:00,43.5,26.6,29.85,SW,225,28.0,28.0,51,0.00,,,0.00,meteohub,2013-10-26 06:14:00,
2013-10-26 01:19:00,43.5,27.1,29.84,SW,225,17.0,28.0,52,0.00,,,0.00,meteohub,2013-10-26 06:19:00,
2013-10-26 01:24:00,43.3,27.0,29.84,South,180,17.0,28.0,52,0.00,,,0.00,meteohub,2013-10-26 06:24:00,
2013-10-26 01:29:00,43.3,27.0,29.84,South,180,21.0,28.0,52,0.00,,,0.00,meteohub,2013-10-26 06:29:00,
2013-10-26 01:34:00,43.2,26.8,29.84,WSW,248,19.0,25.0,52,0.00,,,0.00,meteohub,2013-10-26 06:34:00,
2013-10-26 01:40:00,43.2,26.8,29.83,South,180,15.0,24.0,52,0.00,,,0.00,meteohub,2013-10-26 06:40:00,
2013-10-26 01:45:00,42.8,26.8,29.83,South,180,16.0,26.0,53,0.00,,,0.00,meteohub,2013-10-26 06:45:00,
2013-10-26 01:50:00,42.8,26.8,29.82,SW,225,16.0,26.0,53,0.00,,,0.00,meteohub,2013-10-26 06:50:00,
2013-10-26 01:55:00,42.8,26.8,29.82,SW,225,11.0,26.0,53,0.00,,,0.00,meteohub,2013-10-26 06:55:00,
2013-10-26 02:00:00,42.8,26.8,29.81,SW,225,17.0,22.0,53,0.00,,,0.00,meteohub,2013-10-26 07:00:00,
2013-10-26 02:05:00,42.8,26.8,29.81,SW,225,15.0,22.0,53,0.00,,,0.00,meteohub,2013-10-26 07:05:00,
2013-10-26 02:10:00,42.6,27.1,29.81,SW,225,14.0,22.0,54,0.00,,,0.00,meteohub,2013-10-26 07:10:00,
2013-10-26 02:15:00,42.6,27.5,29.80,South,180,17.0,20.0,55,0.00,,,0.00,meteohub,2013-10-26 07:15:00,
2013-10-26 02:20:00,42.8,27.3,29.80,SW,225,19.0,20.0,54,0.00,,,0.00,meteohub,2013-10-26 07:20:00,
2013-10-26 02:25:00,42.8,27.3,29.80,SW,225,19.0,23.0,54,0.00,,,0.00,meteohub,2013-10-26 07:25:00,
2013-10-26 02:30:00,42.8,27.3,29.80,South,180,20.0,23.0,54,0.00,,,0.00,meteohub,2013-10-26 07:30:00,
2013-10-26 02:35:00,42.8,27.3,29.80,SW,225,17.0,23.0,54,0.00,,,0.00,meteohub,2013-10-26 07:35:00,
2013-10-26 02:40:00,42.8,27.3,29.79,NW,315,20.0,22.0,54,0.00,,,0.00,meteohub,2013-10-26 07:40:00,
2013-10-26 02:46:00,43.2,27.1,29.79,SW,225,23.0,23.0,53,0.00,,,0.00,meteohub,2013-10-26 07:46:00,
2013-10-26 02:51:00,43.0,27.5,29.78,NW,315,13.0,24.0,54,0.00,,,0.00,meteohub,2013-10-26 07:51:00,
2013-10-26 02:56:00,43.0,27.5,29.78,SW,225,21.0,24.0,54,0.00,,,0.00,meteohub,2013-10-26 07:56:00,
2013-10-26 03:01:00,43.0,27.5,29.78,SW,225,20.0,23.0,54,0.00,,,0.00,meteohub,2013-10-26 08:01:00,
2013-10-26 03:06:00,43.0,27.5,29.78,SW,225,22.0,28.0,54,0.00,,,0.00,meteohub,2013-10-26 08:06:00,
2013-10-26 03:11:00,43.2,27.7,29.78,SW,225,13.0,28.0,54,0.00,,,0.00,meteohub,2013-10-26 08:11:00,
2013-10-26 03:16:00,43.0,27.5,29.78,SW,225,18.0,28.0,54,0.00,,,0.00,meteohub,2013-10-26 08:16:00,
2013-10-26 03:21:00,43.0,27.5,29.78,SW,225,18.0,22.0,54,0.00,,,0.00,meteohub,2013-10-26 08:21:00,
2013-10-26 03:26:00,43.2,27.7,29.78,SW,225,15.0,20.0,54,0.00,,,0.00,meteohub,2013-10-26 08:26:00,
2013-10-26 03:31:00,43.0,27.5,29.77,West,270,17.0,20.0,54,0.00,,,0.00,meteohub,2013-10-26 08:31:00,
2013-10-26 03:36:00,43.2,28.0,29.76,SW,225,20.0,20.0,55,0.00,,,0.00,meteohub,2013-10-26 08:36:00,
2013-10-26 03:41:00,43.3,28.2,29.76,SW,225,15.0,22.0,55,0.00,,,0.00,meteohub,2013-10-26 08:41:00,
2013-10-26 03:47:00,43.2,28.0,29.75,West,270,23.0,23.0,55,0.00,,,0.00,meteohub,2013-10-26 08:47:00,
2013-10-26 03:52:00,43.5,28.4,29.75,SW,225,17.0,23.0,55,0.00,,,0.00,meteohub,2013-10-26 08:52:00,
2013-10-26 03:57:00,43.3,28.2,29.75,NW,315,15.0,28.0,55,0.00,,,0.00,meteohub,2013-10-26 08:57:00,
2013-10-26 04:02:00,43.3,28.2,29.75,SW,225,21.0,28.0,55,0.00,,,0.00,meteohub,2013-10-26 09:02:00,
2013-10-26 04:07:00,43.3,28.2,29.75,SW,225,14.0,22.0,55,0.00,,,0.00,meteohub,2013-10-26 09:07:00,
2013-10-26 04:12:00,43.3,28.2,29.75,SW,225,15.0,22.0,55,0.00,,,0.00,meteohub,2013-10-26 09:12:00,
2013-10-26 04:17:00,43.3,28.2,29.75,SW,225,14.0,22.0,55,0.00,,,0.00,meteohub,2013-10-26 09:17:00,
2013-10-26 04:22:00,43.5,28.4,29.75,WNW,293,17.0,22.0,55,0.00,,,0.00,meteohub,2013-10-26 09:22:00,
2013-10-26 04:27:00,43.5,28.9,29.75,SW,225,20.0,21.0,56,0.00,,,0.00,meteohub,2013-10-26 09:27:00,
2013-10-26 04:32:00,43.9,29.1,29.75,SW,225,15.0,27.0,56,0.00,,,0.00,meteohub,2013-10-26 09:32:00,
2013-10-26 04:37:00,44.2,29.5,29.75,NW,315,27.0,27.0,56,0.00,,,0.00,meteohub,2013-10-26 09:37:00,
2013-10-26 04:42:00,44.8,29.1,29.75,NW,315,16.0,27.0,54,0.00,,,0.00,meteohub,2013-10-26 09:42:00,
2013-10-26 04:47:00,44.6,28.9,29.75,SW,225,22.0,27.0,54,0.00,,,0.00,meteohub,2013-10-26 09:47:00,
2013-10-26 04:52:00,44.6,28.9,29.75,SW,225,17.0,27.0,54,0.00,,,0.00,meteohub,2013-10-26 09:52:00,
2013-10-26 04:57:00,44.6,29.5,29.75,SW,225,21.0,23.0,55,0.00,,,0.00,meteohub,2013-10-26 09:57:00,
2013-10-26 05:02:00,44.6,29.5,29.75,SW,225,14.0,23.0,55,0.00,,,0.00,meteohub,2013-10-26 10:02:00,
2013-10-26 05:07:00,44.6,29.5,29.75,SW,225,14.0,23.0,55,0.00,,,0.00,meteohub,2013-10-26 10:07:00,
2013-10-26 05:12:00,44.4,30.2,29.74,West,270,15.0,21.0,57,0.00,,,0.00,meteohub,2013-10-26 10:12:00,
2013-10-26 05:17:00,44.6,29.8,29.75,SW,225,15.0,20.0,56,0.00,,,0.00,meteohub,2013-10-26 10:17:00,
2013-10-26 05:22:00,44.4,30.6,29.75,West,270,14.0,23.0,58,0.00,,,0.00,meteohub,2013-10-26 10:22:00,
2013-10-26 05:27:00,44.6,30.4,29.74,SW,225,15.0,23.0,57,0.00,,,0.00,meteohub,2013-10-26 10:27:00,
2013-10-26 05:32:00,44.4,30.6,29.75,WSW,248,15.0,23.0,58,0.00,,,0.00,meteohub,2013-10-26 10:32:00,
2013-10-26 05:37:00,44.4,30.9,29.74,West,270,19.0,21.0,59,0.00,,,0.00,meteohub,2013-10-26 10:37:00,
2013-10-26 05:42:00,44.6,30.7,29.75,NNW,338,11.0,23.0,58,0.00,,,0.00,meteohub,2013-10-26 10:42:00,
2013-10-26 05:47:00,44.2,31.3,29.75,SW,225,12.0,23.0,60,0.00,,,0.00,meteohub,2013-10-26 10:47:00,
2013-10-26 05:52:00,44.2,31.3,29.75,SW,225,10.0,23.0,60,0.00,,,0.00,meteohub,2013-10-26 10:52:00,
2013-10-26 05:57:00,44.1,31.5,29.74,NW,315,14.0,19.0,61,0.00,,,0.00,meteohub,2013-10-26 10:57:00,
2013-10-26 06:02:00,44.2,32.0,29.74,NW,315,12.0,22.0,62,0.00,,,0.00,meteohub,2013-10-26 11:02:00,
2013-10-26 06:07:00,44.2,32.0,29.74,West,270,21.0,22.0,62,0.00,,,0.00,meteohub,2013-10-26 11:07:00,
2013-10-26 06:12:00,44.2,32.0,29.74,South,180,16.0,22.0,62,0.00,,,0.00,meteohub,2013-10-26 11:12:00,
2013-10-26 06:17:00,44.1,31.8,29.75,South,180,11.0,21.0,62,0.00,,,0.00,meteohub,2013-10-26 11:17:00,
2013-10-26 06:22:00,44.1,32.4,29.75,SW,225,11.0,21.0,63,0.00,,,0.00,meteohub,2013-10-26 11:22:00,
2013-10-26 06:27:00,43.9,32.2,29.75,WSW,248,11.0,17.0,63,0.00,,,0.00,meteohub,2013-10-26 11:27:00,
2013-10-26 06:32:00,43.9,32.2,29.75,SW,225,11.0,17.0,63,0.00,,,0.00,meteohub,2013-10-26 11:32:00,
2013-10-26 06:37:00,43.7,32.4,29.75,NW,315,11.0,17.0,64,0.00,,,0.00,meteohub,2013-10-26 11:37:00,
2013-10-26 06:42:00,43.5,32.2,29.75,NW,315,13.0,15.0,64,0.00,,,0.00,meteohub,2013-10-26 11:42:00,
2013-10-26 06:47:00,43.3,32.4,29.76,SW,225,15.0,15.0,65,0.00,,,0.00,meteohub,2013-10-26 11:47:00,
2013-10-26 06:52:00,43.2,32.2,29.76,West,270,8.0,15.0,65,0.00,,,0.00,meteohub,2013-10-26 11:52:00,
2013-10-26 06:57:00,42.8,32.2,29.76,North,0,8.0,15.0,66,0.00,,,0.00,meteohub,2013-10-26 11:57:00,
2013-10-26 07:02:00,42.8,32.2,29.76,West,270,4.0,15.0,66,0.00,,,0.00,meteohub,2013-10-26 12:02:00,
2013-10-26 07:07:00,42.8,32.2,29.76,West,270,4.0,13.0,66,0.00,,,0.00,meteohub,2013-10-26 12:07:00,
2013-10-26 07:12:00,42.4,33.1,29.76,West,270,11.0,14.0,69,0.00,,,0.00,meteohub,2013-10-26 12:12:00,
2013-10-26 07:17:00,42.4,33.1,29.76,NW,315,10.0,15.0,69,0.00,,,0.00,meteohub,2013-10-26 12:17:00,
2013-10-26 07:22:00,42.3,33.3,29.76,NW,315,8.0,15.0,70,0.00,,,0.00,meteohub,2013-10-26 12:22:00,
2013-10-26 07:27:00,42.1,33.1,29.76,North,0,6.0,15.0,70,0.00,,,0.00,meteohub,2013-10-26 12:27:00,
2013-10-26 07:32:00,41.9,33.3,29.76,West,270,7.0,12.0,71,0.00,,,0.00,meteohub,2013-10-26 12:32:00,
2013-10-26 07:37:00,41.9,33.6,29.76,West,270,7.0,12.0,72,0.00,,,0.00,meteohub,2013-10-26 12:37:00,
2013-10-26 07:42:00,41.9,33.8,29.76,NW,315,10.0,12.0,73,0.00,,,0.00,meteohub,2013-10-26 12:42:00,
2013-10-26 07:47:00,41.9,33.8,29.76,West,270,9.0,12.0,73,0.00,,,0.00,meteohub,2013-10-26 12:47:00,
2013-10-26 07:52:00,42.3,34.2,29.77,West,270,7.0,11.0,73,0.00,,,0.00,meteohub,2013-10-26 12:52:00,
2013-10-26 07:57:00,42.4,34.3,29.77,West,270,9.0,12.0,73,0.00,,,0.00,meteohub,2013-10-26 12:57:00,
2013-10-26 08:02:00,42.8,34.3,29.77,North,0,7.0,12.0,72,0.00,,,0.00,meteohub,2013-10-26 13:02:00,
2013-10-26 08:07:00,42.6,34.5,29.77,SW,225,8.0,12.0,73,0.00,,,0.00,meteohub,2013-10-26 13:07:00,
2013-10-26 08:13:00,42.4,34.3,29.77,NW,315,11.0,14.0,73,0.00,,,0.00,meteohub,2013-10-26 13:13:00,
2013-10-26 08:18:00,42.3,34.5,29.77,NW,315,11.0,14.0,74,0.00,,,0.00,meteohub,2013-10-26 13:18:00,
2013-10-26 08:23:00,42.4,34.7,29.78,West,270,7.0,14.0,74,0.00,,,0.00,meteohub,2013-10-26 13:23:00,
2013-10-26 08:28:00,42.4,35.1,29.78,SW,225,9.0,14.0,75,0.00,,,0.00,meteohub,2013-10-26 13:28:00,
2013-10-26 08:33:00,42.4,35.1,29.78,NW,315,8.0,14.0,75,0.00,,,0.00,meteohub,2013-10-26 13:33:00,
2013-10-26 08:38:00,42.6,35.2,29.79,North,0,9.0,13.0,75,0.00,,,0.00,meteohub,2013-10-26 13:38:00,
2013-10-26 08:43:00,42.6,35.2,29.79,NW,315,15.0,15.0,75,0.00,,,0.00,meteohub,2013-10-26 13:43:00,
2013-10-26 08:48:00,42.6,35.2,29.79,South,180,10.0,15.0,75,0.00,,,0.00,meteohub,2013-10-26 13:48:00,
2013-10-26 08:53:00,42.6,35.6,29.79,West,270,11.0,15.0,76,0.00,,,0.00,meteohub,2013-10-26 13:53:00,
2013-10-26 08:58:00,42.8,35.4,29.79,NW,315,12.0,15.0,75,0.00,,,0.00,meteohub,2013-10-26 13:58:00,
2013-10-26 09:03:00,42.8,35.4,29.79,NW,315,9.0,15.0,75,0.00,,,0.00,meteohub,2013-10-26 14:03:00,
2013-10-26 09:08:00,43.2,35.8,29.80,NW,315,8.0,14.0,75,0.00,,,0.00,meteohub,2013-10-26 14:08:00,
2013-10-26 09:13:00,43.5,36.1,29.80,NW,315,11.0,14.0,75,0.00,,,0.00,meteohub,2013-10-26 14:13:00,
2013-10-26 09:18:00,43.5,35.8,29.80,NW,315,15.0,15.0,74,0.00,,,0.00,meteohub,2013-10-26 14:18:00,
2013-10-26 09:24:00,43.5,35.8,29.80,North,0,21.0,21.0,74,0.00,,,0.00,meteohub,2013-10-26 14:24:00,
2013-10-26 09:29:00,43.7,35.6,29.81,NW,315,15.0,17.0,73,0.00,,,0.00,meteohub,2013-10-26 14:29:00,
2013-10-26 09:34:00,44.4,36.0,29.81,NW,315,11.0,21.0,72,0.00,,,0.00,meteohub,2013-10-26 14:34:00,
2013-10-26 09:39:00,45.0,35.4,29.81,North,0,16.0,21.0,69,0.00,,,0.00,meteohub,2013-10-26 14:39:00,
2013-10-26 09:44:00,45.1,34.9,29.80,West,270,12.0,20.0,67,0.00,,,0.00,meteohub,2013-10-26 14:44:00,
2013-10-26 09:49:00,45.5,34.9,29.81,North,0,15.0,20.0,66,0.00,,,0.00,meteohub,2013-10-26 14:49:00,
2013-10-26 09:54:00,45.7,35.1,29.81,WNW,293,17.0,17.0,66,0.00,,,0.00,meteohub,2013-10-26 14:54:00,
2013-10-26 09:59:00,45.9,34.7,29.81,North,0,15.0,22.0,65,0.00,,,0.00,meteohub,2013-10-26 14:59:00,
2013-10-26 10:04:00,46.4,35.2,29.82,NW,315,18.0,22.0,65,0.00,,,0.00,meteohub,2013-10-26 15:04:00,
2013-10-26 10:09:00,46.4,35.2,29.82,West,270,15.0,22.0,65,0.00,,,0.00,meteohub,2013-10-26 15:09:00,
2013-10-26 10:14:00,46.8,35.2,29.82,NW,315,23.0,23.0,64,0.00,,,0.00,meteohub,2013-10-26 15:14:00,
2013-10-26 10:19:00,46.9,35.1,29.83,North,0,13.0,23.0,63,0.00,,,0.00,meteohub,2013-10-26 15:19:00,
2013-10-26 10:25:00,46.9,34.5,29.83,North,0,18.0,23.0,62,0.00,,,0.00,meteohub,2013-10-26 15:25:00,
2013-10-26 10:30:00,47.1,34.7,29.83,NW,315,15.0,23.0,62,0.00,,,0.00,meteohub,2013-10-26 15:30:00,
2013-10-26 10:35:00,46.8,34.0,29.84,NW,315,20.0,24.0,61,0.00,,,0.00,meteohub,2013-10-26 15:35:00,
2013-10-26 10:40:00,46.6,33.8,29.84,North,0,20.0,24.0,61,0.00,,,0.00,meteohub,2013-10-26 15:40:00,
2013-10-26 10:45:00,47.1,33.4,29.84,NW,315,12.0,24.0,59,0.00,,,0.00,meteohub,2013-10-26 15:45:00,
2013-10-26 10:50:00,47.7,34.0,29.85,NE,45,17.0,22.0,59,0.00,,,0.00,meteohub,2013-10-26 15:50:00,
2013-10-26 10:55:00,47.1,33.4,29.85,NW,315,15.0,24.0,59,0.00,,,0.00,meteohub,2013-10-26 15:55:00,
2013-10-26 11:00:00,46.9,33.4,29.86,NW,315,14.0,26.0,59,0.00,,,0.00,meteohub,2013-10-26 16:00:00,
2013-10-26 11:05:00,46.9,33.4,29.86,NW,315,14.0,26.0,59,0.00,,,0.00,meteohub,2013-10-26 16:05:00,
2013-10-26 11:10:00,46.0,32.5,29.87,NW,315,15.0,26.0,59,0.00,,,0.00,meteohub,2013-10-26 16:10:00,
2013-10-26 11:15:00,46.0,32.9,29.87,NW,315,17.0,22.0,60,0.00,,,0.00,meteohub,2013-10-26 16:15:00,
2013-10-26 11:21:00,46.0,33.3,29.87,North,0,11.0,22.0,61,0.00,,,0.00,meteohub,2013-10-26 16:21:00,
2013-10-26 11:26:00,47.1,34.0,29.87,North,0,11.0,20.0,60,0.00,,,0.00,meteohub,2013-10-26 16:26:00,
2013-10-26 11:31:00,47.8,34.2,29.87,NW,315,17.0,20.0,59,0.00,,,0.00,meteohub,2013-10-26 16:31:00,
2013-10-26 11:36:00,48.6,34.0,29.87,North,0,24.0,24.0,57,0.00,,,0.00,meteohub,2013-10-26 16:36:00,
2013-10-26 11:41:00,48.2,32.7,29.87,NW,315,17.0,24.0,55,0.00,,,0.00,meteohub,2013-10-26 16:41:00,
2013-10-26 11:46:00,48.6,33.1,29.87,NW,315,21.0,24.0,55,0.00,,,0.00,meteohub,2013-10-26 16:46:00,
2013-10-26 11:51:00,49.1,33.3,29.88,North,0,15.0,25.0,54,0.00,,,0.00,meteohub,2013-10-26 16:51:00,
2013-10-26 11:56:00,49.1,33.3,29.88,West,270,12.0,27.0,54,0.00,,,0.00,meteohub,2013-10-26 16:56:00,
2013-10-26 12:01:00,49.6,33.6,29.88,NW,315,12.0,27.0,54,0.00,,,0.00,meteohub,2013-10-26 17:01:00,
2013-10-26 12:06:00,49.8,33.8,29.88,WNW,293,21.0,27.0,54,0.00,,,0.00,meteohub,2013-10-26 17:06:00,
2013-10-26 12:11:00,50.0,33.6,29.88,NW,315,21.0,23.0,53,0.00,,,0.00,meteohub,2013-10-26 17:11:00,
2013-10-26 12:17:00,50.0,33.1,29.88,WNW,293,17.0,23.0,52,0.00,,,0.00,meteohub,2013-10-26 17:17:00,
2013-10-26 12:22:00,49.3,32.9,29.88,NW,315,15.0,28.0,53,0.00,,,0.00,meteohub,2013-10-26 17:22:00,
2013-10-26 12:27:00,50.2,33.6,29.89,NW,315,22.0,28.0,53,0.00,,,0.00,meteohub,2013-10-26 17:27:00,
2013-10-26 12:32:00,50.0,33.1,29.89,NE,45,15.0,28.0,52,0.00,,,0.00,meteohub,2013-10-26 17:32:00,
2013-10-26 12:37:00,50.2,33.3,29.89,NW,315,11.0,26.0,52,0.00,,,0.00,meteohub,2013-10-26 17:37:00,
2013-10-26 12:42:00,50.2,32.7,29.89,North,0,25.0,26.0,51,0.00,,,0.00,meteohub,2013-10-26 17:42:00,
2013-10-26 12:47:00,50.2,32.7,29.89,NW,315,21.0,26.0,51,0.00,,,0.00,meteohub,2013-10-26 17:47:00,
2013-10-26 12:52:00,49.5,32.5,29.89,NW,315,20.0,26.0,52,0.00,,,0.00,meteohub,2013-10-26 17:52:00,
2013-10-26 12:57:00,49.6,33.6,29.90,NW,315,17.0,26.0,54,0.00,,,0.00,meteohub,2013-10-26 17:57:00,
2013-10-26 13:02:00,50.2,33.3,29.90,NW,315,22.0,23.0,52,0.00,,,0.00,meteohub,2013-10-26 18:02:00,
2013-10-26 13:07:00,50.5,33.1,29.89,NW,315,21.0,23.0,51,0.00,,,0.00,meteohub,2013-10-26 18:07:00,
2013-10-26 13:12:00,50.2,32.7,29.90,NW,315,18.0,24.0,51,0.00,,,0.00,meteohub,2013-10-26 18:12:00,
2013-10-26 13:17:00,50.5,33.6,29.90,WNW,293,18.0,24.0,52,0.00,,,0.00,meteohub,2013-10-26 18:17:00,
2013-10-26 13:22:00,50.5,33.6,29.90,NW,315,21.0,22.0,52,0.00,,,0.00,meteohub,2013-10-26 18:22:00,
2013-10-26 13:27:00,50.5,34.0,29.90,North,0,27.0,27.0,53,0.00,,,0.00,meteohub,2013-10-26 18:27:00,
2013-10-26 13:32:00,51.1,34.0,29.90,West,270,14.0,27.0,52,0.00,,,0.00,meteohub,2013-10-26 18:32:00,
2013-10-26 13:37:00,51.6,34.2,29.90,NW,315,7.0,27.0,51,0.00,,,0.00,meteohub,2013-10-26 18:37:00,
2013-10-26 13:42:00,51.4,32.9,29.91,NW,315,18.0,27.0,49,0.00,,,0.00,meteohub,2013-10-26 18:42:00,
2013-10-26 13:47:00,49.5,32.5,29.92,North,0,27.0,27.0,52,0.00,,,0.00,meteohub,2013-10-26 18:47:00,
2013-10-26 13:52:00,48.7,32.9,29.92,North,0,17.0,29.0,54,0.00,,,0.00,meteohub,2013-10-26 18:52:00,
2013-10-26 13:57:00,49.5,34.0,29.92,NW,315,10.0,29.0,55,0.00,,,0.00,meteohub,2013-10-26 18:57:00,
2013-10-26 14:02:00,50.0,33.6,29.92,North,0,17.0,29.0,53,0.00,,,0.00,meteohub,2013-10-26 19:02:00,
2013-10-26 14:07:00,50.2,33.3,29.92,North,0,12.0,20.0,52,0.00,,,0.00,meteohub,2013-10-26 19:07:00,
2013-10-26 14:12:00,50.7,32.7,29.92,NW,315,11.0,20.0,50,0.00,,,0.00,meteohub,2013-10-26 19:12:00,
2013-10-26 14:17:00,50.2,32.2,29.92,North,0,15.0,20.0,50,0.00,,,0.00,meteohub,2013-10-26 19:17:00,
2013-10-26 14:22:00,50.4,32.9,29.92,NW,315,19.0,21.0,51,0.00,,,0.00,meteohub,2013-10-26 19:22:00,
2013-10-26 14:27:00,50.9,32.9,29.92,NW,315,15.0,21.0,50,0.00,,,0.00,meteohub,2013-10-26 19:27:00,
2013-10-26 14:32:00,50.7,31.3,29.93,WNW,293,17.0,19.0,47,0.00,,,0.00,meteohub,2013-10-26 19:32:00,
2013-10-26 14:37:00,50.5,30.6,29.93,SW,225,11.0,20.0,46,0.00,,,0.00,meteohub,2013-10-26 19:37:00,
2013-10-26 14:42:00,50.7,30.2,29.93,NW,315,21.0,22.0,45,0.00,,,0.00,meteohub,2013-10-26 19:42:00,
2013-10-26 14:47:00,50.9,30.4,29.93,NW,315,14.0,24.0,45,0.00,,,0.00,meteohub,2013-10-26 19:47:00,
2013-10-26 14:52:00,50.5,30.0,29.93,WNW,293,19.0,24.0,45,0.00,,,0.00,meteohub,2013-10-26 19:52:00,
2013-10-26 14:57:00,50.4,30.4,29.93,NW,315,20.0,24.0,46,0.00,,,0.00,meteohub,2013-10-26 19:57:00,
2013-10-26 15:02:00,50.4,29.8,29.94,North,0,17.0,21.0,45,0.00,,,0.00,meteohub,2013-10-26 20:02:00,
2013-10-26 15:07:00,50.5,30.0,29.94,North,0,17.0,21.0,45,0.00,,,0.00,meteohub,2013-10-26 20:07:00,
2013-10-26 15:12:00,51.1,29.8,29.94,North,0,15.0,20.0,44,0.00,,,0.00,meteohub,2013-10-26 20:12:00,
2013-10-26 15:17:00,50.9,29.8,29.94,NW,315,15.0,21.0,44,0.00,,,0.00,meteohub,2013-10-26 20:17:00,
2013-10-26 15:22:00,51.1,29.8,29.94,NW,315,11.0,21.0,44,0.00,,,0.00,meteohub,2013-10-26 20:22:00,
2013-10-26 15:27:00,51.4,30.2,29.95,NW,315,13.0,21.0,44,0.00,,,0.00,meteohub,2013-10-26 20:27:00,
2013-10-26 15:32:00,51.4,29.7,29.95,West,270,22.0,25.0,43,0.00,,,0.00,meteohub,2013-10-26 20:32:00,
2013-10-26 15:37:00,50.5,27.7,29.95,WNW,293,16.0,25.0,41,0.00,,,0.00,meteohub,2013-10-26 20:37:00,
2013-10-26 15:42:00,49.1,28.0,29.96,NW,315,10.0,22.0,44,0.00,,,0.00,meteohub,2013-10-26 20:42:00,
2013-10-26 15:47:00,48.4,28.0,29.96,NW,315,17.0,22.0,45,0.00,,,0.00,meteohub,2013-10-26 20:47:00,
2013-10-26 15:52:00,48.7,28.9,29.96,WNW,293,16.0,18.0,46,0.00,,,0.00,meteohub,2013-10-26 20:52:00,
2013-10-26 15:57:00,48.9,29.1,29.97,NW,315,8.0,19.0,46,0.00,,,0.00,meteohub,2013-10-26 20:57:00,
2013-10-26 16:02:00,48.7,28.9,29.97,WNW,293,15.0,19.0,46,0.00,,,0.00,meteohub,2013-10-26 21:02:00,
2013-10-26 16:07:00,48.6,28.8,29.97,North,0,9.0,18.0,46,0.00,,,0.00,meteohub,2013-10-26 21:07:00,
2013-10-26 16:12:00,49.1,29.1,29.97,NW,315,11.0,16.0,46,0.00,,,0.00,meteohub,2013-10-26 21:12:00,
2013-10-26 16:17:00,48.7,28.9,29.97,North,0,11.0,17.0,46,0.00,,,0.00,meteohub,2013-10-26 21:17:00,
2013-10-26 16:22:00,48.4,28.6,29.97,North,0,11.0,17.0,46,0.00,,,0.00,meteohub,2013-10-26 21:22:00,
2013-10-26 16:27:00,48.9,29.7,29.97,North,0,8.0,17.0,47,0.00,,,0.00,meteohub,2013-10-26 21:27:00,
2013-10-26 16:32:00,49.5,30.0,29.97,NW,315,7.0,17.0,47,0.00,,,0.00,meteohub,2013-10-26 21:32:00,
2013-10-26 16:37:00,50.0,29.5,29.97,West,270,13.0,15.0,45,0.00,,,0.00,meteohub,2013-10-26 21:37:00,
2013-10-26 16:42:00,49.8,29.3,29.97,NW,315,15.0,20.0,45,0.00,,,0.00,meteohub,2013-10-26 21:42:00,
2013-10-26 16:47:00,49.8,29.3,29.97,North,0,15.0,20.0,45,0.00,,,0.00,meteohub,2013-10-26 21:47:00,
2013-10-26 16:52:00,50.0,28.9,29.97,WNW,293,17.0,20.0,44,0.00,,,0.00,meteohub,2013-10-26 21:52:00,
2013-10-26 16:57:00,49.6,28.0,29.97,North,0,19.0,21.0,43,0.00,,,0.00,meteohub,2013-10-26 21:57:00,
2013-10-26 17:02:00,49.3,27.1,29.98,NW,315,14.0,21.0,42,0.00,,,0.00,meteohub,2013-10-26 22:02:00,
2013-10-26 17:07:00,49.1,27.0,29.98,North,0,14.0,21.0,42,0.00,,,0.00,meteohub,2013-10-26 22:07:00,
2013-10-26 17:12:00,48.6,27.7,29.97,NW,315,19.0,19.0,44,0.00,,,0.00,meteohub,2013-10-26 22:12:00,
2013-10-26 17:17:00,48.2,27.3,29.97,NW,315,8.0,19.0,44,0.00,,,0.00,meteohub,2013-10-26 22:17:00,
2013-10-26 17:22:00,47.8,28.0,29.98,NW,315,11.0,19.0,46,0.00,,,0.00,meteohub,2013-10-26 22:22:00,
2013-10-26 17:27:00,47.7,28.4,29.98,WNW,293,11.0,19.0,47,0.00,,,0.00,meteohub,2013-10-26 22:27:00,
2013-10-26 17:32:00,47.5,28.2,29.98,North,0,14.0,17.0,47,0.00,,,0.00,meteohub,2013-10-26 22:32:00,
2013-10-26 17:37:00,47.1,27.9,29.98,North,0,12.0,16.0,47,0.00,,,0.00,meteohub,2013-10-26 22:37:00,
2013-10-26 17:42:00,46.9,28.2,29.98,North,0,9.0,16.0,48,0.00,,,0.00,meteohub,2013-10-26 22:42:00,
2013-10-26 17:47:00,46.6,27.9,29.98,NW,315,10.0,14.0,48,0.00,,,0.00,meteohub,2013-10-26 22:47:00,
2013-10-26 17:52:00,46.2,28.0,29.98,North,0,6.0,14.0,49,0.00,,,0.00,meteohub,2013-10-26 22:52:00,
2013-10-26 17:57:00,45.7,28.0,29.98,North,0,8.0,12.0,50,0.00,,,0.00,meteohub,2013-10-26 22:57:00,
2013-10-26 18:02:00,45.5,28.4,29.98,North,0,7.0,11.0,51,0.00,,,0.00,meteohub,2013-10-26 23:02:00,
2013-10-26 18:08:00,45.1,28.0,29.99,North,0,6.0,11.0,51,0.00,,,0.00,meteohub,2013-10-26 23:08:00,
2013-10-26 18:13:00,45.0,27.9,29.98,North,0,7.0,11.0,51,0.00,,,0.00,meteohub,2013-10-26 23:13:00,
2013-10-26 18:18:00,44.6,28.0,29.98,NW,315,6.0,8.0,52,0.00,,,0.00,meteohub,2013-10-26 23:18:00,
2013-10-26 18:23:00,44.2,28.6,29.99,North,0,4.0,8.0,54,0.00,,,0.00,meteohub,2013-10-26 23:23:00,
2013-10-26 18:28:00,43.9,28.4,29.99,NW,315,6.0,8.0,54,0.00,,,0.00,meteohub,2013-10-26 23:28:00,
2013-10-26 18:33:00,43.7,28.6,29.99,NW,315,7.0,7.0,55,0.00,,,0.00,meteohub,2013-10-26 23:33:00,
2013-10-26 18:38:00,43.5,28.4,29.99,NW,315,4.0,7.0,55,0.00,,,0.00,meteohub,2013-10-26 23:38:00,
2013-10-26 18:43:00,43.3,28.8,29.99,NW,315,6.0,7.0,56,0.00,,,0.00,meteohub,2013-10-26 23:43:00,
2013-10-26 18:48:00,43.3,28.8,29.99,NW,315,6.0,7.0,56,0.00,,,0.00,meteohub,2013-10-26 23:48:00,
2013-10-26 18:53:00,43.3,28.8,29.99,NW,315,2.0,8.0,56,0.00,,,0.00,meteohub,2013-10-26 23:53:00,
2013-10-26 18:58:00,43.2,28.6,29.99,NW,315,3.0,8.0,56,0.00,,,0.00,meteohub,2013-10-26 23:58:00,
2013-10-26 19:03:00,43.2,28.6,29.99,NW,315,6.0,8.0,56,0.00,,,0.00,meteohub,2013-10-27 00:03:00,
2013-10-26 19:09:00,43.0,28.4,29.99,NW,315,4.0,5.0,56,0.00,,,0.00,meteohub,2013-10-27 00:09:00,
2013-10-26 19:14:00,42.8,28.2,29.99,NW,315,4.0,6.0,56,0.00,,,0.00,meteohub,2013-10-27 00:14:00,
2013-10-26 19:19:00,42.8,28.6,29.99,North,0,4.0,6.0,57,0.00,,,0.00,meteohub,2013-10-27 00:19:00,
2013-10-26 19:24:00,42.8,28.6,29.99,NW,315,4.0,6.0,57,0.00,,,0.00,meteohub,2013-10-27 00:24:00,
2013-10-26 19:29:00,42.8,28.6,29.99,North,0,4.0,6.0,57,0.00,,,0.00,meteohub,2013-10-27 00:29:00,
2013-10-26 19:34:00,42.6,28.9,29.99,North,0,4.0,6.0,58,0.00,,,0.00,meteohub,2013-10-27 00:34:00,
2013-10-26 19:39:00,42.4,28.8,29.99,NW,315,4.0,5.0,58,0.00,,,0.00,meteohub,2013-10-27 00:39:00,
2013-10-26 19:44:00,42.3,28.9,29.99,NW,315,2.0,6.0,59,0.00,,,0.00,meteohub,2013-10-27 00:44:00,
2013-10-26 19:49:00,42.3,28.9,29.99,NW,315,4.0,6.0,59,0.00,,,0.00,meteohub,2013-10-27 00:49:00,
2013-10-26 19:54:00,42.3,28.9,29.99,North,0,4.0,6.0,59,0.00,,,0.00,meteohub,2013-10-27 00:54:00,
2013-10-26 20:00:00,42.1,28.8,29.99,NW,315,3.0,5.0,59,0.00,,,0.00,meteohub,2013-10-27 01:00:00,
2013-10-26 20:05:00,41.9,28.6,29.99,NW,315,4.0,5.0,59,0.00,,,0.00,meteohub,2013-10-27 01:05:00,
2013-10-26 20:10:00,41.7,28.9,29.99,NW,315,3.0,5.0,60,0.00,,,0.00,meteohub,2013-10-27 01:10:00,
2013-10-26 20:15:00,41.7,28.9,29.99,NW,315,4.0,5.0,60,0.00,,,0.00,meteohub,2013-10-27 01:15:00,
2013-10-26 20:20:00,41.5,28.8,29.99,NW,315,4.0,4.0,60,0.00,,,0.00,meteohub,2013-10-27 01:20:00,
2013-10-26 20:25:00,41.5,28.8,30.00,NW,315,4.0,5.0,60,0.00,,,0.00,meteohub,2013-10-27 01:25:00,
2013-10-26 20:30:00,41.7,28.9,29.99,North,0,6.0,6.0,60,0.00,,,0.00,meteohub,2013-10-27 01:30:00,
2013-10-26 20:35:00,41.7,28.9,29.99,WNW,293,6.0,6.0,60,0.00,,,0.00,meteohub,2013-10-27 01:35:00,
2013-10-26 20:40:00,41.4,28.9,29.99,WNW,293,6.0,7.0,61,0.00,,,0.00,meteohub,2013-10-27 01:40:00,
2013-10-26 20:45:00,41.4,28.9,29.99,West,270,2.0,7.0,61,0.00,,,0.00,meteohub,2013-10-27 01:45:00,
2013-10-26 20:51:00,41.4,28.9,29.99,West,270,2.0,7.0,61,0.00,,,0.00,meteohub,2013-10-27 01:51:00,
2013-10-26 20:56:00,41.5,28.8,29.98,NW,315,5.0,6.0,60,0.00,,,0.00,meteohub,2013-10-27 01:56:00,
2013-10-26 21:01:00,41.2,28.8,29.98,NW,315,4.0,5.0,61,0.00,,,0.00,meteohub,2013-10-27 02:01:00,
2013-10-26 21:06:00,41.0,28.6,29.99,NW,315,4.0,5.0,61,0.00,,,0.00,meteohub,2013-10-27 02:06:00,
2013-10-26 21:11:00,41.0,28.9,29.99,NW,315,3.0,5.0,62,0.00,,,0.00,meteohub,2013-10-27 02:11:00,
2013-10-26 21:16:00,40.8,29.1,29.98,North,0,4.0,4.0,63,0.00,,,0.00,meteohub,2013-10-27 02:16:00,
2013-10-26 21:21:00,40.8,29.1,29.98,North,0,4.0,4.0,63,0.00,,,0.00,meteohub,2013-10-27 02:21:00,
2013-10-26 21:26:00,40.6,29.5,29.99,NW,315,6.0,6.0,64,0.00,,,0.00,meteohub,2013-10-27 02:26:00,
2013-10-26 21:31:00,40.6,29.5,29.98,North,0,5.0,8.0,64,0.00,,,0.00,meteohub,2013-10-27 02:31:00,
2013-10-26 21:36:00,40.5,29.3,29.98,WNW,293,5.0,8.0,64,0.00,,,0.00,meteohub,2013-10-27 02:36:00,
2013-10-26 21:41:00,40.3,29.5,29.98,NW,315,4.0,8.0,65,0.00,,,0.00,meteohub,2013-10-27 02:41:00,
2013-10-26 21:47:00,40.1,29.3,29.98,North,0,6.0,8.0,65,0.00,,,0.00,meteohub,2013-10-27 02:47:00,
2013-10-26 21:52:00,39.9,29.1,29.98,NW,315,4.0,8.0,65,0.00,,,0.00,meteohub,2013-10-27 02:52:00,
2013-10-26 21:57:00,40.1,29.3,29.98,NW,315,4.0,8.0,65,0.00,,,0.00,meteohub,2013-10-27 02:57:00,
2013-10-26 22:02:00,40.1,29.3,29.98,North,0,7.0,7.0,65,0.00,,,0.00,meteohub,2013-10-27 03:02:00,
2013-10-26 22:07:00,40.1,29.3,29.98,North,0,10.0,10.0,65,0.00,,,0.00,meteohub,2013-10-27 03:07:00,
2013-10-26 22:12:00,40.5,29.7,29.98,NW,315,4.0,10.0,65,0.00,,,0.00,meteohub,2013-10-27 03:12:00,
2013-10-26 22:17:00,40.5,29.3,29.98,NW,315,6.0,10.0,64,0.00,,,0.00,meteohub,2013-10-27 03:17:00,
2013-10-26 22:22:00,40.3,29.5,29.98,North,0,6.0,10.0,65,0.00,,,0.00,meteohub,2013-10-27 03:22:00,
2013-10-26 22:27:00,40.1,29.3,29.98,West,270,4.0,8.0,65,0.00,,,0.00,meteohub,2013-10-27 03:27:00,
2013-10-26 22:32:00,39.7,28.9,29.98,NW,315,2.0,8.0,65,0.00,,,0.00,meteohub,2013-10-27 03:32:00,
2013-10-26 22:37:00,39.6,28.8,29.98,NW,315,4.0,7.0,65,0.00,,,0.00,meteohub,2013-10-27 03:37:00,
2013-10-26 22:42:00,39.4,28.6,29.98,NW,315,4.0,5.0,65,0.00,,,0.00,meteohub,2013-10-27 03:42:00,
2013-10-26 22:47:00,39.0,28.9,29.98,NW,315,2.0,4.0,67,0.00,,,0.00,meteohub,2013-10-27 03:47:00,
2013-10-26 22:52:00,39.0,28.9,29.99,NW,315,2.0,6.0,67,0.00,,,0.00,meteohub,2013-10-27 03:52:00,
2013-10-26 22:57:00,39.0,28.9,29.99,West,270,2.0,6.0,67,0.00,,,0.00,meteohub,2013-10-27 03:57:00,
2013-10-26 23:01:00,39.0,28.9,29.98,West,270,2.0,5.0,67,0.00,,,0.00,meteohub,2013-10-27 04:01:00,
2013-10-26 23:02:00,39.0,28.9,29.98,West,270,2.0,5.0,67,0.00,,,0.00,meteohub,2013-10-27 04:02:00,
2013-10-26 23:03:00,39.0,28.9,29.99,West,270,2.0,5.0,67,0.00,,,0.00,meteohub,2013-10-27 04:03:00,
2013-10-26 23:05:00,39.0,28.9,29.99,West,270,2.0,5.0,67,0.00,,,0.00,meteohub,2013-10-27 04:05:00,
2013-10-26 23:10:00,38.7,28.6,29.99,SW,225,2.0,3.0,67,0.00,,,0.00,meteohub,2013-10-27 04:10:00,
2013-10-26 23:11:00,38.7,28.6,29.99,West,270,2.0,3.0,67,0.00,,,0.00,meteohub,2013-10-27 04:11:00,
2013-10-26 23:16:00,38.7,28.6,29.99,NW,315,3.0,3.0,67,0.00,,,0.00,meteohub,2013-10-27 04:16:00,
2013-10-26 23:21:00,38.5,28.4,29.99,SW,225,2.0,3.0,67,0.00,,,0.00,meteohub,2013-10-27 04:21:00,
2013-10-26 23:26:00,38.5,28.8,29.99,West,270,3.0,3.0,68,0.00,,,0.00,meteohub,2013-10-27 04:26:00,
2013-10-26 23:31:00,38.7,28.9,29.98,West,270,2.0,4.0,68,0.00,,,0.00,meteohub,2013-10-27 04:31:00,
2013-10-26 23:37:00,38.7,28.9,29.97,NW,315,0.0,4.0,68,0.00,,,0.00,meteohub,2013-10-27 04:37:00,
2013-10-26 23:42:00,38.5,28.8,29.97,West,270,2.0,4.0,68,0.00,,,0.00,meteohub,2013-10-27 04:42:00,
2013-10-26 23:47:00,38.5,28.8,29.97,SW,225,2.0,2.0,68,0.00,,,0.00,meteohub,2013-10-27 04:47:00,
2013-10-26 23:52:00,38.5,28.8,29.97,West,270,0.0,3.0,68,0.00,,,0.00,meteohub,2013-10-27 04:52:00,
2013-10-26 23:57:00,38.3,28.8,29.97,West,270,3.0,3.0,68,0.00,,,0.00,meteohub,2013-10-27 04:57:00,